Tracking 25963 objects as of 12-Aug-2022
HD Live streaming from Space Station
objects crossing your sky now

STARLINK-4296

Track STARLINK-4296 now!
10-day predictions
STARLINK-4296 is classified as:


NORAD ID: 52995
Int'l Code: 2022-076K
Perigee: 355.2 km
Apogee: 358.1 km
Inclination: 53.2 °
Period: 91.5 minutes
Semi major axis: 6727 km
RCS: Unknown
Launch date: July 7, 2022
Source: United States (US)
Launch site: AIR FORCE EASTERN TEST RANGE (AFETR)
aabbcc
Your satellite tracking list
Your tracking list is empty




NASA's NSSDC Master Catalog

Two Line Element Set (TLE):
1 52995U 22076K   22224.58334491 -.00071932  00000-0 -51048-3 0  9991
2 52995  53.2172 201.2631 0002224  20.5563 253.7714 15.73287943  1300
Source of the keplerian elements: AFSPC